EW5546 Weather Reports


Display with metric or nautical units.
time (UTC)temp
F
wind
direction
speed
MPH
gust
MPH
rain 1hr
in
rain 24hr
in
rain mn
in
humidity
%
barometer
mb
20260903205022 67 209 1.0 2.0 0.00 0.00 0.00 54 1013.0
20260903204022 67 203 1.0 1.0 0.00 0.00 0.00 55 1013.0
20260903203015 67 0.0 0.0 0.00 0.00 0.00 56 1013.0
20260903202022 67 0.0 0.0 0.00 0.00 0.00 56 1013.0
20260903201022 67 0.0 0.0 0.00 0.00 0.00 56 1013.0
20260903200022 68 0.0 0.0 0.00 0.00 0.00 55 1013.0
20260903195022 68 0.0 0.0 0.00 0.00 0.00 53 1013.0
20260903194022 68 0.0 0.0 0.00 0.00 0.00 53 1013.0
20260903193042 68 0.0 0.0 0.00 0.00 0.00 53 1013.0
20260903192025 68 203 0.0 1.0 0.00 0.00 0.00 52 1014.0
20260903191021 68 0.0 0.0 0.00 0.00 0.00 52 1014.0
20260903190054 68 203 0.0 1.0 0.00 0.00 0.00 52 1014.0
20260903185022 68 0.0 0.0 0.00 0.00 0.00 51 1014.0
20260903184024 69 0.0 0.0 0.00 0.00 0.00 50 1014.0
20260903183104 69 0.0 0.0 0.00 0.00 0.00 49 1014.0
20260903182016 69 203 0.0 1.0 0.00 0.00 0.00 48 1014.0
20260903181106 69 215 1.0 2.0 0.00 0.00 0.00 47 1014.0
20260903180015 70 241 1.0 2.0 0.00 0.00 0.00 46 1014.0
20260903175022 70 203 0.0 1.0 0.00 0.00 0.00 47 1014.0
20260903174038 70 0.0 0.0 0.00 0.00 0.00 46 1014.0
20260903173025 70 0.0 0.0 0.00 0.00 0.00 45 1014.0
20260903172026 70 225 0.0 1.0 0.00 0.00 0.00 45 1013.0
20260903171016 71 225 0.0 1.0 0.00 0.00 0.00 44 1013.5
20260903170022 71 0.0 0.0 0.00 0.00 0.00 44 1014.0
20260903165026 71 0.0 0.0 0.00 0.00 0.00 44 1014.0
20260903164022 71 203 1.0 1.0 0.00 0.00 0.00 43 1014.0
20260903163022 71 236 0.0 1.0 0.00 0.00 0.00 43 1014.0
20260903162025 72 214 0.0 1.0 0.00 0.00 0.00 42 1014.0
20260903161018 72 212 0.0 1.0 0.00 0.00 0.00 42 1014.0
20260903160016 72 218 0.0 1.0 0.00 0.00 0.00 42 1014.0
20260903155025 73 248 0.0 1.0 0.00 0.00 0.00 42 1014.0
20260903154015 73 216 1.0 1.0 0.00 0.00 0.00 42 1014.0
20260903153022 73 229 1.0 2.0 0.00 0.00 0.00 42 1014.0
20260903152023 73 234 1.0 2.0 0.00 0.00 0.00 41 1014.0
20260903151020 73 213 1.0 1.0 0.00 0.00 0.00 41 1014.0
20260903150022 74 0.0 0.0 0.00 0.00 0.00 40 1014.0
20260903145017 74 203 1.0 2.0 0.00 0.00 0.00 40 1014.0
20260903144023 74 220 1.0 1.0 0.00 0.00 0.00 39 1014.0
20260903143022 75 170 1.0 1.0 0.00 0.00 0.00 39 1014.0
20260903142025 76 230 1.0 2.0 0.00 0.00 0.00 38 1014.0
20260903141039 77 84 2.0 4.0 0.00 0.00 0.00 38 1014.0
20260903140022 78 236 1.0 1.0 0.00 0.00 0.00 38 1014.0
20260903135022 78 214 1.0 2.0 0.00 0.00 0.00 39 1014.0
20260903134022 78 222 1.0 2.0 0.00 0.00 0.00 38 1014.0
20260903133023 78 242 1.0 2.0 0.00 0.00 0.00 39 1014.0
20260903132024 77 202 1.0 2.0 0.00 0.00 0.00 40 1014.0
20260903131023 76 129 2.0 3.0 0.00 0.00 0.00 40 1014.9
20260903130025 76 353 2.0 5.0 0.00 0.00 0.00 40 1015.0
20260903124017 75 60 2.0 4.0 0.00 0.00 0.00 40 1015.0
20260903123024 75 218 2.0 3.0 0.00 0.00 0.00 41 1015.0
20260903122022 74 76 1.0 3.0 0.00 0.00 0.00 42 1015.0
20260903121024 74 79 2.0 3.0 0.00 0.00 0.00 41 1015.0
20260903120018 73 44 1.0 2.0 0.00 0.00 0.00 42 1015.0
20260903115022 73 68 1.0 4.0 0.00 0.00 0.00 42 1015.0
20260903114022 73 79 2.0 4.0 0.00 0.00 0.00 42 1015.0
20260903113016 73 302 2.0 4.0 0.00 0.00 0.00 42 1015.0
20260903112022 73 92 2.0 5.0 0.00 0.00 0.00 42 1016.1
20260903111015 74 193 1.0 3.0 0.00 0.00 0.00 43 1016.1
20260903110015 73 206 1.0 2.0 0.00 0.00 0.00 43 1016.1
20260903105022 73 219 1.0 2.0 0.00 0.00 0.00 43 1016.1
20260903104023 73 224 2.0 3.0 0.00 0.00 0.00 43 1016.1
20260903103040 73 77 2.0 3.0 0.00 0.00 0.00 43 1016.1
20260903102024 73 223 2.0 2.0 0.00 0.00 0.00 44 1016.1
20260903101022 72 194 1.0 2.0 0.00 0.00 0.00 45 1016.1
20260903100022 72 249 1.0 2.0 0.00 0.00 0.00 45 1016.1
20260903095042 72 3 2.0 4.0 0.00 0.00 0.00 46 1016.1
20260903094022 71 23 2.0 3.0 0.00 0.00 0.00 47 1016.1
20260903093042 71 45 1.0 3.0 0.00 0.00 0.00 48 1016.1
20260903092024 71 34 1.0 4.0 0.00 0.00 0.00 48 1016.1
20260903091022 70 201 1.0 2.0 0.00 0.00 0.00 49 1016.6
20260903090118 70 218 2.0 2.0 0.00 0.00 0.00 48 1017.1
20260903085042 70 218 1.0 2.0 0.00 0.00 0.00 51 1017.1
20260903084023 70 253 1.0 2.0 0.00 0.00 0.00 53 1017.1
20260903083043 69 268 1.0 2.0 0.00 0.00 0.00 54 1017.1
20260903082021 69 198 1.0 1.0 0.00 0.00 0.00 55 1017.1
20260903081022 69 248 0.0 1.0 0.00 0.00 0.00 56 1016.6
20260903080042 68 58 1.0 2.0 0.00 0.00 0.00 57 1016.1
20260903075026 68 248 0.0 1.0 0.00 0.00 0.00 59 1016.1
20260903074025 68 210 1.0 2.0 0.00 0.00 0.00 59 1016.1
20260903073022 68 175 2.0 2.0 0.00 0.00 0.00 59 1016.1
20260903072019 67 225 0.0 1.0 0.00 0.00 0.00 61 1016.1
20260903071026 67 214 0.0 1.0 0.00 0.00 0.00 61 1016.1
20260903070018 66 203 0.0 2.0 0.00 0.00 0.00 62 1016.1
20260903065017 66 225 0.0 1.0 0.00 0.00 0.00 63 1016.1
20260903064031 66 203 0.0 1.0 0.00 0.00 0.00 63 1016.1
20260903063022 65 217 1.0 1.0 0.00 0.00 0.00 64 1016.1
20260903062045 65 248 0.0 1.0 0.00 0.00 0.00 64 1016.1
20260903061022 64 0.0 0.0 0.00 0.00 0.00 65 1016.1
20260903060022 64 203 0.0 1.0 0.00 0.00 0.00 67 1016.1
20260903055036 63 0.0 0.0 0.00 0.00 0.00 68 1017.1
20260903054022 63 0.0 0.0 0.00 0.00 0.00 69 1017.1
20260903053023 62 0.0 0.0 0.00 0.00 0.00 71 1017.1
20260903052023 62 0.0 0.0 0.00 0.00 0.00 71 1016.1
20260903051022 62 0.0 0.0 0.00 0.00 0.00 70 1016.6
20260903050022 62 0.0 0.0 0.00 0.00 0.00 70 1017.1
20260903045015 62 0.0 0.0 0.00 0.00 0.00 70 1017.1
20260903044024 62 0.0 0.0 0.00 0.00 0.00 69 1017.1
20260903043022 62 0.0 0.0 0.00 0.00 0.00 69 1017.1
20260903042022 62 0.0 0.0 0.00 0.00 0.00 69 1017.1
20260903041044 62 0.0 0.0 0.00 0.00 0.00 69 1017.1
20260903040023 62 0.0 0.0 0.00 0.00 0.00 69 1017.1
20260903035106 62 0.0 0.0 0.00 0.00 0.00 68 1017.1
20260903034022 62 0.0 0.0 0.00 0.00 0.00 68 1017.1
20260903033022 62 0.0 0.0 0.00 0.00 0.00 69 1017.1
20260903032022 62 0.0 0.0 0.00 0.00 0.00 70 1017.1
20260903031025 62 0.0 0.0 0.00 0.00 0.00 69 1017.1
20260903030024 62 0.0 0.0 0.00 0.00 0.00 69 1017.1
20260903025022 62 0.0 0.0 0.00 0.00 0.00 69 1017.1
20260903024046 62 0.0 0.0 0.00 0.00 0.00 69 1017.1
20260903023022 62 0.0 0.0 0.00 0.00 0.00 68 1017.1
20260903022022 62 0.0 0.0 0.00 0.00 0.00 70 1017.1
20260903021018 62 0.0 0.0 0.00 0.00 0.00 69 1017.1
20260903020043 62 0.0 0.0 0.00 0.00 0.00 69 1017.1
20260903015025 62 0.0 0.0 0.00 0.00 0.00 69 1017.1
20260903014022 62 0.0 0.0 0.00 0.00 0.00 69 1017.1
20260903013022 62 0.0 0.0 0.00 0.00 0.00 70 1017.1
20260903012022 62 0.0 0.0 0.00 0.00 0.00 70 1017.1
20260903011022 62 0.0 0.0 0.00 0.00 0.00 70 1017.1
20260903010052 61 0.0 0.0 0.00 0.00 0.00 70 1017.1
20260903004023 61 0.0 0.0 0.00 0.00 0.00 70 1017.1
20260903003057 61 0.0 0.0 0.00 0.00 0.00 69 1017.1
20260903002022 61 0.0 0.0 0.00 0.00 0.00 69 1017.1
20260903001023 61 0.0 0.0 0.00 0.00 0.00 68 1017.1
20260903000033 61 0.0 0.0 0.00 0.00 0.00 68 1017.1
20260902235024 61 0.0 0.0 0.00 0.00 0.00 68 1017.1
20260902234025 61 0.0 0.0 0.00 0.00 0.00 68 1017.1
20260902233023 62 0.0 0.0 0.00 0.00 0.00 67 1017.1
20260902232024 62 0.0 0.0 0.00 0.00 0.00 67 1017.1
20260902231026 0 0.0 0.0 0.00 0.00 0.00 1017.1
20260902225023 0 0.0 0.0 0.00 0.00 0.00 1017.1
20260902224024 61 0.0 0.0 0.00 0.00 0.00 67 1017.1
20260902223023 61 0.0 0.0 0.00 0.00 0.00 67 1017.1
20260902222102 61 0.0 0.0 0.00 0.00 0.00 66 1017.1
20260902221023 62 0.0 0.0 0.00 0.00 0.00 66 1017.1
20260902220043 62 0.0 0.0 0.00 0.00 0.00 65 1017.1
20260902215044 62 0.0 0.0 0.00 0.00 0.00 65 1017.1
20260902214028 62 0.0 0.0 0.00 0.00 0.00 64 1017.1
20260902213024 62 0.0 0.0 0.00 0.00 0.00 63 1017.1
20260902212024 62 0.0 0.0 0.00 0.00 0.00 63 1017.1
20260902211027 62 0.0 0.0 0.00 0.00 0.00 62 1017.1
20260902210024 62 0.0 0.0 0.00 0.00 0.00 62 1017.1